Погода в Ксизове

Россия / Липецкая область     52°17′25″N   38°56′47″E
темп.,
°C
ветер,
м/с
пор.,
м/с
влажн.,
%
обл.,
%
осадки,
мм/ч
давл.,
гПа
погр.,
м
8 марта, пн
пн800:00−1зсз7138997 0.9 1003949
03:00−5зюз5108592 0.9 1004259
06:00−5юз5118292 0.0 1003278
09:00−3зюз6118496 0.0 1003735
12:00−2з8137682 0.0 10041309
15:00−2зсз7107763 0.1 10061193
18:00−5зсз368845 0.0 1008129
21:00−8з339128 0.0 101047
9 марта, вт
вт900:00−8зсз229487 0.0 101032
03:00−8сз229692 0.1 101177
06:00−10ссз3592100 0.1 1011165
09:00−9ссз4792100 0.1 1013337
12:00−8ссз578598 0.0 1015635
15:00−9ссз578399 0.1 1017760
18:00−11сз4888100 0.0 1019522
21:00−13сз489370 0.0 1021238
10 марта, ср
ср1000:00−14сз489310 0.0 1022206
03:00−16сз35945 0.0 1024163
06:00−17сз359414 0.0 1025157
09:00−16сз349011 0.0 1026247
12:00−12ссз347849 0.0 1026446
15:00−11с227974 0.0 1026476
18:00−12св3494100 0.3 1026252
21:00−14св4693100 0.6 1027289
11 марта, чт
чт1100:00−15всв4687100 0.1 1028330
03:00−17всв368799 0.1 1030249
06:00−19всв359120 0.0 1030165
09:00−18в348631 0.0 1032266
12:00−14в34690 0.0 1032544
15:00−12в34640 0.0 1033611
18:00−14в34800 0.0 103397
21:00−16вюв34870 0.0 103497
12 марта, пт
пт1200:00−17юв34860 0.0 103499
03:00−17юв36830 0.0 1034144
06:00−17ююв46870 0.0 1034146
09:00−14ююв59820 0.0 1033311
12:00−9ююв6106770 0.0 1031493
15:00−7ю7116485 0.0 1029633
18:00−8ююв61364100 0.0 1027508
21:00−7ю71562100 0.0 1026591